Regional Weather Roundup
Issued by NWS Charleston, SC

Current Version | Previous Version | Graphics & Text | Print | Product List | Glossary On
Versions: 1 2 3 4 5 6 7 8 9 10 11 12 13 14 15 16 17 18 19 20 21 22 23 24 25 26 27 28 29 30 31 32 33 34 35 36 37 38 39 40 41 42 43 44 45 46 47 48 49 50
000 ASUS42 KCHS 180725 RWRCHS REGIONAL WEATHER ROUNDUP NATIONAL WEATHER SERVICE CHARLESTON SC 200 AM EST THU DEC 18 2014 NOTE: "FAIR" INDICATES FEW OR NO CLOUDS BELOW 12,000 FEET WITH NO SIGNIFICANT WEATHER AND/OR OBSTRUCTIONS TO VISIBILITY. NOT ALL STATIONS ARE QUALITY CONTROLLED BY THE NATIONAL WEATHER SERVICE. USE DATA WITH CAUTION...ESPECIALLY DEWPOINT OBSERVATIONS. SCZ027-030-031-034>040-042>050-180800- ...SOUTHEAST SOUTH CAROLINA... CITY SKY/WX TMP DP RH WIND PRES REMARKS N CHARLESTON PTCLDY 44 41 89 CALM 30.10S WATERFRONT PRK N/A 48 N/A N/A W5 N/A MOUNT PLEASANT LGT RAIN 39 39 100 CALM 30.11R PINOPOLIS N/A 48 45 87 CALM 30.00F MONCKS CORNER FAIR 37 36 93 CALM 30.10R SUMMERVILLE NOT AVBL BEAUFORT MCAS CLEAR 40 37 89 SW3 30.12R BEAUFORT ARPT FAIR 43 43 100 W6 30.11R HILTON HEAD IS CLEAR 45 45 100 W3 30.13R WALTERBORO SUNNY 37 N/A N/A CALM 30.11R ALLENDALE FAIR 37 37 100 CALM 30.09S ...SOUTHERN MIDLANDS AND PEE DEE... CITY SKY/WX TMP DP RH WIND PRES REMARKS GEORGETOWN NOT AVBL KINGSTREE NOT AVBL ORANGEBURG PTCLDY 36 34 92 CALM 30.09S BARNWELL N/A 36 34 93 CALM 30.10S AIKEN FAIR 36 36 100 CALM 30.12R MANNING NOT AVBL COLUMBIA CLEAR 35 31 85 CALM 30.09S SUMTER CLEAR 37 36 93 CALM 30.08S FLORENCE CLEAR 38 35 89 CALM 30.08F MYRTLE BEACH CLEAR 43 37 81 CALM 30.09F N MYRTLE BEACH CLEAR 44 40 85 W6 30.09R $$ GAZ063-065-086>088-099>101-113>116-118-119-134>141-150-180800- ...SOUTHEAST GEORGIA... CITY SKY/WX TMP DP RH WIND PRES REMARKS SAVANNAH ARPT CLEAR 41 37 86 W3 30.13R HUNTER AAF CLEAR 39 38 94 W6 30.11R WCI 35 FORT STEWART CLEAR 40 38 92 CALM 30.12R STATESBORO CLEAR 35 35 100 CALM 30.11F SYLVANIA SUNNY 38 38 100 CALM 30.11F CLAXTON FAIR 34 34 100 CALM 30.13S ...CSRA...CENTRAL AND FAR SOUTHEAST GEORGIA... CITY SKY/WX TMP DP RH WIND PRES REMARKS THOMSON PTCLDY 35 35 100 CALM 30.15R AUGUSTA-BUSH PTCLDY 33 32 96 CALM 30.10S AUGUSTA-DANIEL PTCLDY 43 38 82 W5 30.10S SWAINSBORO FAIR 37 37 100 CALM 30.13R VIDALIA PTCLDY 39 37 93 CALM 30.13S EASTMAN N/A 34 34 100 CALM 30.16R FOG HAZLEHURST FAIR 42 42 100 CALM 30.13S ALMA CLOUDY 41 39 93 CALM 30.14R WAYCROSS CLOUDY 47 45 91 CALM 30.13S JESUP FAIR 39 39 100 NW5 30.15R WCI 36 BAXLEY FAIR 41 41 100 CALM 30.13S BRUNSWICK PTCLDY 43 41 93 CALM 30.14S SAINT SIMONS PTCLDY 45 42 89 CALM 30.14R $$ SCZ027-028-034-036>038-045-046-048>050-GAZ119-141-180800- ...LAKE AND SUPPLEMENTAL COASTAL OBSERVATIONS... STATION/POSITION TIME TEMP WIND PRES WAVE SWELL AIR SEA DIR/SP/G HT/PER HT/PER/DIR (UTC) (F) (DEG/KT/KT) (MB) (FT/S) (FT/S/D) UPR LAKE MARION NOT AVBL WINYAH BAY 0700 44 280/ 1 1018.0S LAKE MURRAY 0600 46 290/ 4/ 7 1017.9F ACE BASIN NERRS 0700 40 CALM 1019.0S FORT PULASKI 0700 51 56 280/ 7/ 9 1020.2R SAPELO ISLAND 0600 48 250/ 3 1020.0S $$ ANZ835-935-AMZ111-154-330-350-352-354-370-450-454-472-180800- ...C-MAN AND BUOY OBSERVATIONS... STATION/POSITION TIME TEMP WIND PRES WAVE SWELL AIR SEA DIR/SP/G HT/PER HT/PER/DIR (UTC) (F) (DEG/KT/KT) (MB) (FT/S) (FT/S/D) BUOY 41004 0700 61 73 280/ 10/ 16 1018.8F 2/10 2/10 BUOY 41008 0700 56 57 280/ 8/ 10 1019.8F 1/10 2/100/10 FOLLY BEACH CMAN 0700 48 270/ 4/ 5 1019.5S CAPERS NEARSHORE 0600 53 240/ 8/ 8 N/A FRIPP NEARSHORE NOT AVBL STATION/POSITION TIME TEMP WIND PRES WAVE SWELL AIR SEA DIR/SP/G HT/PER HT/PER/DIR (UTC) (F) (DEG/KT/KT) (MB) (FT/S) (FT/S/D) 5E ST. MARYS GA 0700 60 N/A 1/11 FRYING PAN BUOY 0700 58 65 280/ 10/ 12 1019.2R 2/11 2/120/11 BUOY 41025 0700 57 1017.3F 3/ 4 CAPE LOOKOUT NC 0700 54 280/ 9/ 10 1017.9R BUOY 41002 0623 69 72 260/ 10/ 14 1018.4F 4/ 7 3/250/ 7 BUOY 41010 0700 70 76 280/ 8/ 12 1019.9F 3/10 2/110/10 ST AUGUSTINE FL 0700 50 290/ 7/ 8 1021.1R $$

USA.gov is the U.S. government's official web portal to all federal, state and local government web resources and services.